Simultaneous Nadir Overpasses (SNOs) Predictions

Prediction of SNOs between NOAA-20 and AQUA Satellite Orbit:

Table of predicted SNOs for the next 14.0 days since TLE Epoch: 9/16/2023
Index Date (NOAA-20) Time (NOAA-20) Lat,Lon (NOAA-20) SZA (NOAA-20 ) Date (AQUA) Time (AQUA) Lat,Lon (AQUA) SZA (AQUA ) Distance(km) Time Diff (sec)
1 09/18/2023 15:19:18 -80.84, 42.55 92.40 09/18/2023 15:19:57 -80.84, 42.59 92.43 0.86 39
2 09/18/2023 16:09:59 80.89,-149.15 87.47 09/18/2023 16:09:18 80.89,-149.16 87.50 0.20 41
3 09/21/2023 05:03:55 80.84, 16.33 88.57 09/21/2023 05:05:00 80.84, 16.27 88.54 1.14 65
4 09/21/2023 05:54:38 -80.88,-175.60 91.54 09/21/2023 05:54:23 -80.88,-175.58 91.53 0.39 15
5 09/23/2023 19:39:16 80.87, 158.12 89.44 09/23/2023 19:39:26 80.87, 158.05 89.44 1.31 10
6 09/23/2023 20:29:58 -80.93, -33.44 90.73 09/23/2023 20:28:48 -80.93, -33.44 90.68 0.19 70
7 09/26/2023 09:23:55 -80.85, 131.62 89.56 09/26/2023 09:24:29 -80.85, 131.60 89.58 0.58 34
8 09/26/2023 10:14:36 80.92, -59.77 90.26 09/26/2023 10:13:50 80.92, -59.85 90.30 1.39 46
9 09/28/2023 23:08:32 80.86, 105.58 91.38 09/28/2023 23:09:29 80.86, 105.50 91.35 1.41 57



Historial Predications of SNOs between NOAA-20 and AQUA
